Home   Weather   Rio Branco   Past weeks
Flag for Brazil

Past Weather in Rio Branco, Acre, Brazil — Yesterday and Last 2 Weeks

Now
66 °F

Passing clouds.


Feels Like: 66 °F
Forecast: 81 / 65 °F
Wind: 3 mph from South

Location: Rio Branco Airport

Current Time: May 25, 2019 at 12:25:29 am

Latest Report: May 24, 2019 at 11:00 pm


Visibility: N/A

Pressure: 30.04 "Hg

Humidity: 100%

Dew Point: 66 °F

Location of Rio BrancoLocation

Past Weather in Rio Branco — Graph

°F

Rio Branco Temperature Yesterday

Maximum temperature yesterday: 77 °F (at 12:00 am)
Minimum temperature yesterday: 66 °F (at 6:00 pm)
Average temperature yesterday: 71 °F

High & Low Weather Summary for the Past Weeks

 TemperatureHumidityPressure
High90 °F (May 10, 1:00 pm)100% (May 10, 12:00 am)30.12 "Hg (May 10, 12:00 am)
Low63 °F (May 17, 4:00 am)29% (May 14, 7:00 pm)29.74 "Hg (May 10, 4:00 pm)
Average75 °F88%29.93 "Hg
* Reported May 9 11:00 pm — May 24 11:00 pm, Rio Branco. Weather by CustomWeather, © 2019

Note: Actual official high and low records may vary slightly from our data, if they occured in-between our weather recording intervals... More about our weather records

Advertising

Rio Branco Weather History for the Previous 24 Hours

Scroll right to see more
 ConditionsComfort  
Time TempWeatherWind HumidityBarometerVisibility
11:00 pm
Fri, May 24
66 °FPassing clouds.3 mph100%30.04 "HgN/A
10:00 pm66 °FPassing clouds.5 mph100%30.04 "HgN/A
9:00 pm66 °FPartly cloudy.6 mph100%30.01 "HgN/A
8:00 pm66 °FPartly cloudy.7 mph100%29.98 "HgN/A
7:00 pm66 °FPartly cloudy.7 mph100%29.98 "HgN/A
6:00 pm66 °FPartly cloudy.7 mph100%29.95 "HgN/A
5:00 pm68 °FBroken clouds.16 mph100%29.95 "HgN/A
4:00 pm70 °FOvercast.14 mph94%29.92 "HgN/A
3:00 pm72 °FPartly sunny.12 mph88%29.92 "HgN/A
2:00 pm72 °FOvercast.8 mph88%29.95 "HgN/A
1:00 pm73 °FOvercast.8 mph89%29.98 "HgN/A
12:00 pm73 °FPartly sunny.9 mph89%30.01 "HgN/A
11:00 am73 °FBroken clouds.8 mph89%N/AN/A
10:17 am73 °FPartly sunny.9 mph89%30.04 "HgN/A
10:00 am72 °FPartly sunny.7 mph94%30.04 "HgN/A
9:00 am72 °FPartly sunny.8 mph94%30.04 "HgN/A
8:00 am70 °FDrizzle. Low clouds.6 mph100%30.01 "Hg4 mi
7:00 am72 °FMostly cloudy.7 mph100%29.98 "HgN/A
6:00 am72 °FMostly cloudy.8 mph100%29.98 "HgN/A
5:00 am72 °FPassing clouds.7 mph100%29.95 "HgN/A
4:00 am73 °FPassing clouds.5 mph100%29.92 "HgN/A
3:00 am73 °FPassing clouds.6 mph100%29.92 "HgN/A
2:00 am75 °FPassing clouds.8 mph100%29.92 "HgN/A
1:00 am75 °FPassing clouds.5 mph100%29.92 "HgN/A
12:00 am77 °FPassing clouds.5 mph94%29.92 "HgN/A
Weather by CustomWeather, © 2019

See weather overview